Time,TemperatureF,DewpointF,PressureIn,WindDirection,WindDirectionDegrees,WindSpeedMPH,WindSpeedGustMPH,Humidity,HourlyPrecipIn,Conditions,Clouds,dailyrainin,SoftwareType,DateUTC
2013-02-08 00:04:00,54.6,44.0,29.82,WSW,242,5.0,10.0,68,0.00,,,0.00,weatherlink.com 1.10,2013-02-08 05:04:00,
2013-02-08 00:19:00,54.4,45.0,29.82,WSW,243,7.0,12.0,70,0.00,,,0.00,weatherlink.com 1.10,2013-02-08 05:19:00,
2013-02-08 00:34:00,53.9,45.0,29.83,WSW,244,0.0,7.0,72,0.00,,,0.00,weatherlink.com 1.10,2013-02-08 05:34:00,
2013-02-08 00:50:00,52.9,46.0,29.82,WSW,257,3.0,8.0,77,0.00,,,0.00,weatherlink.com 1.10,2013-02-08 05:50:00,
2013-02-08 01:05:00,52.3,46.0,29.82,SW,233,3.0,11.0,80,0.00,,,0.00,weatherlink.com 1.10,2013-02-08 06:05:00,
2013-02-08 01:27:00,50.9,47.0,29.83,SW,222,2.0,6.0,85,0.02,,,0.02,weatherlink.com 1.10,2013-02-08 06:27:00,
2013-02-08 01:34:00,50.6,47.0,29.82,WSW,239,3.0,5.0,86,0.02,,,0.02,weatherlink.com 1.10,2013-02-08 06:34:00,
2013-02-08 01:49:00,50.2,47.0,29.82,SW,232,1.0,6.0,88,0.04,,,0.04,weatherlink.com 1.10,2013-02-08 06:49:00,
2013-02-08 02:04:00,50.0,47.0,29.82,WNW,283,1.0,3.0,90,0.05,,,0.05,weatherlink.com 1.10,2013-02-08 07:04:00,
2013-02-08 02:19:00,49.7,47.0,29.82,West,264,0.0,2.0,91,0.05,,,0.06,weatherlink.com 1.10,2013-02-08 07:19:00,
2013-02-08 02:35:00,49.3,47.0,29.83,NW,309,0.0,1.0,92,0.05,,,0.07,weatherlink.com 1.10,2013-02-08 07:35:00,
2013-02-08 02:50:00,49.2,47.0,29.83,West,263,0.0,2.0,93,0.04,,,0.08,weatherlink.com 1.10,2013-02-08 07:50:00,
2013-02-08 03:05:00,49.2,48.0,29.83,NNE,13,1.0,1.0,94,0.03,,,0.08,weatherlink.com 1.10,2013-02-08 08:05:00,
2013-02-08 03:20:00,49.1,48.0,29.84,NNW,338,2.0,8.0,94,0.03,,,0.09,weatherlink.com 1.10,2013-02-08 08:20:00,
2013-02-08 03:35:00,47.4,44.0,29.85,NW,326,5.0,10.0,89,0.03,,,0.10,weatherlink.com 1.10,2013-02-08 08:35:00,
2013-02-08 03:50:00,45.4,42.0,29.87,West,274,3.0,12.0,89,0.03,,,0.11,weatherlink.com 1.10,2013-02-08 08:50:00,
2013-02-08 04:05:00,44.5,42.0,29.87,NNE,15,0.0,12.0,90,0.03,,,0.11,weatherlink.com 1.10,2013-02-08 09:05:00,
2013-02-08 04:20:00,43.6,41.0,29.88,NNW,333,4.0,12.0,90,0.03,,,0.12,weatherlink.com 1.10,2013-02-08 09:20:00,
2013-02-08 04:35:00,42.4,39.0,29.89,NNW,343,4.0,11.0,89,0.02,,,0.12,weatherlink.com 1.10,2013-02-08 09:35:00,
2013-02-08 04:50:00,41.5,39.0,29.90,NW,319,2.0,14.0,89,0.01,,,0.12,weatherlink.com 1.10,2013-02-08 09:50:00,
2013-02-08 05:05:00,41.0,38.0,29.91,NNW,346,4.0,13.0,89,0.01,,,0.12,weatherlink.com 1.10,2013-02-08 10:05:00,
2013-02-08 05:20:00,40.5,38.0,29.92,NNW,333,2.0,9.0,89,0.00,,,0.12,weatherlink.com 1.10,2013-02-08 10:20:00,
2013-02-08 05:35:00,40.1,37.0,29.93,NE,37,2.0,10.0,89,0.00,,,0.12,weatherlink.com 1.10,2013-02-08 10:35:00,
2013-02-08 05:50:00,39.5,37.0,29.94,NW,322,2.0,10.0,89,0.00,,,0.12,weatherlink.com 1.10,2013-02-08 10:50:00,
2013-02-08 06:05:00,39.2,36.0,29.95,NNW,334,1.0,10.0,88,0.00,,,0.12,weatherlink.com 1.10,2013-02-08 11:05:00,
2013-02-08 06:21:00,39.2,36.0,29.96,North,360,6.0,11.0,87,0.00,,,0.12,weatherlink.com 1.10,2013-02-08 11:21:00,
2013-02-08 06:35:00,39.0,36.0,29.97,NW,312,2.0,6.0,87,0.00,,,0.12,weatherlink.com 1.10,2013-02-08 11:35:00,
2013-02-08 06:50:00,38.9,35.0,29.98,NNE,12,2.0,8.0,86,0.00,,,0.12,weatherlink.com 1.10,2013-02-08 11:50:00,
2013-02-08 07:06:00,38.5,34.0,29.99,NNW,335,0.0,9.0,85,0.00,,,0.12,weatherlink.com 1.10,2013-02-08 12:06:00,
2013-02-08 07:20:00,38.4,34.0,30.00,WNW,287,8.0,9.0,85,0.00,,,0.12,weatherlink.com 1.10,2013-02-08 12:20:00,
2013-02-08 07:35:00,38.0,34.0,30.01,North,352,5.0,12.0,85,0.00,,,0.12,weatherlink.com 1.10,2013-02-08 12:35:00,
2013-02-08 07:51:00,37.6,34.0,30.02,WNW,292,4.0,10.0,85,0.00,,,0.12,weatherlink.com 1.10,2013-02-08 12:51:00,
2013-02-08 08:05:00,37.5,33.0,30.03,WSW,257,0.0,8.0,85,0.00,,,0.12,weatherlink.com 1.10,2013-02-08 13:05:00,
2013-02-08 08:20:00,37.3,33.0,30.04,North,349,1.0,13.0,84,0.00,,,0.12,weatherlink.com 1.10,2013-02-08 13:20:00,
2013-02-08 08:36:00,37.2,33.0,30.04,NNE,33,2.0,13.0,84,0.00,,,0.12,weatherlink.com 1.10,2013-02-08 13:36:00,
2013-02-08 08:51:00,37.2,33.0,30.06,SW,216,1.0,10.0,84,0.00,,,0.12,weatherlink.com 1.10,2013-02-08 13:51:00,
2013-02-08 09:06:00,37.2,33.0,30.07,North,360,1.0,8.0,84,0.00,,,0.12,weatherlink.com 1.10,2013-02-08 14:06:00,
2013-02-08 09:21:00,37.2,33.0,30.07,NNE,16,0.0,8.0,84,0.00,,,0.12,weatherlink.com 1.10,2013-02-08 14:21:00,
2013-02-08 09:36:00,37.1,33.0,30.08,NE,49,2.0,5.0,84,0.00,,,0.12,weatherlink.com 1.10,2013-02-08 14:36:00,
2013-02-08 09:51:00,37.2,33.0,30.09,West,277,0.0,8.0,83,0.00,,,0.12,weatherlink.com 1.10,2013-02-08 14:51:00,
2013-02-08 10:06:00,36.9,32.0,30.10,NW,319,5.0,13.0,83,0.00,,,0.12,weatherlink.com 1.10,2013-02-08 15:06:00,
2013-02-08 10:21:00,37.0,31.0,30.11,NNW,340,2.0,11.0,80,0.00,,,0.12,weatherlink.com 1.10,2013-02-08 15:21:00,
2013-02-08 10:36:00,36.8,32.0,30.12,WNW,283,2.0,9.0,81,0.00,,,0.12,weatherlink.com 1.10,2013-02-08 15:36:00,
2013-02-08 10:51:00,36.7,31.0,30.13,North,352,4.0,10.0,81,0.00,,,0.12,weatherlink.com 1.10,2013-02-08 15:51:00,
2013-02-08 11:06:00,36.8,31.0,30.13,NW,312,4.0,9.0,80,0.00,,,0.12,weatherlink.com 1.10,2013-02-08 16:06:00,
2013-02-08 11:21:00,36.8,32.0,30.14,WNW,283,1.0,8.0,81,0.00,,,0.12,weatherlink.com 1.10,2013-02-08 16:21:00,
2013-02-08 11:37:00,36.9,31.0,30.15,NW,325,6.0,10.0,80,0.00,,,0.12,weatherlink.com 1.10,2013-02-08 16:37:00,
2013-02-08 11:51:00,37.2,31.0,30.15,NNE,25,1.0,8.0,79,0.00,,,0.12,weatherlink.com 1.10,2013-02-08 16:51:00,
2013-02-08 12:07:00,36.6,31.0,30.15,NW,304,4.0,13.0,80,0.00,,,0.00,weatherlink.com 1.10,2013-02-08 17:07:00,
2013-02-08 12:22:00,36.5,31.0,30.16,North,6,4.0,8.0,80,0.00,,,0.00,weatherlink.com 1.10,2013-02-08 17:22:00,
2013-02-08 12:36:00,36.6,31.0,30.16,NW,319,3.0,6.0,80,0.00,,,0.00,weatherlink.com 1.10,2013-02-08 17:36:00,
2013-02-08 12:52:00,37.3,31.0,30.16,NNE,23,2.0,7.0,77,0.00,,,0.00,weatherlink.com 1.10,2013-02-08 17:52:00,
2013-02-08 13:07:00,37.6,31.0,30.16,West,279,2.0,8.0,78,0.00,,,0.00,weatherlink.com 1.10,2013-02-08 18:07:00,
2013-02-08 13:21:00,37.3,31.0,30.16,WNW,293,5.0,6.0,77,0.00,,,0.00,weatherlink.com 1.10,2013-02-08 18:21:00,
2013-02-08 13:37:00,37.6,31.0,30.16,NNE,18,5.0,8.0,77,0.00,,,0.00,weatherlink.com 1.10,2013-02-08 18:37:00,
2013-02-08 13:51:00,37.5,30.0,30.17,NNW,342,0.0,8.0,75,0.00,,,0.00,weatherlink.com 1.10,2013-02-08 18:51:00,
2013-02-08 14:06:00,37.3,30.0,30.17,WNW,301,3.0,10.0,75,0.00,,,0.00,weatherlink.com 1.10,2013-02-08 19:06:00,
2013-02-08 14:22:00,37.5,30.0,30.18,NW,314,2.0,11.0,74,0.00,,,0.00,weatherlink.com 1.10,2013-02-08 19:22:00,
2013-02-08 14:37:00,37.2,30.0,30.18,WNW,290,2.0,8.0,76,0.00,,,0.00,weatherlink.com 1.10,2013-02-08 19:37:00,
2013-02-08 14:52:00,37.0,30.0,30.18,NW,304,2.0,7.0,77,0.00,,,0.00,weatherlink.com 1.10,2013-02-08 19:52:00,
2013-02-08 15:07:00,36.8,30.0,30.18,WNW,295,2.0,7.0,77,0.00,,,0.00,weatherlink.com 1.10,2013-02-08 20:07:00,
2013-02-08 15:22:00,36.7,30.0,30.19,NNE,15,2.0,10.0,76,0.00,,,0.00,weatherlink.com 1.10,2013-02-08 20:22:00,
2013-02-08 15:37:00,36.5,30.0,30.20,NW,311,3.0,7.0,76,0.00,,,0.00,weatherlink.com 1.10,2013-02-08 20:37:00,
2013-02-08 15:52:00,36.4,29.0,30.21,NW,321,1.0,8.0,75,0.00,,,0.00,weatherlink.com 1.10,2013-02-08 20:52:00,
2013-02-08 16:07:00,36.3,29.0,30.21,WNW,295,7.0,8.0,76,0.00,,,0.00,weatherlink.com 1.10,2013-02-08 21:07:00,
2013-02-08 16:22:00,35.9,29.0,30.22,NW,326,2.0,7.0,77,0.00,,,0.00,weatherlink.com 1.10,2013-02-08 21:22:00,
2013-02-08 16:37:00,35.8,29.0,30.23,NNE,27,5.0,10.0,77,0.00,,,0.00,weatherlink.com 1.10,2013-02-08 21:37:00,
2013-02-08 16:52:00,35.7,29.0,30.23,NE,39,5.0,8.0,76,0.00,,,0.00,weatherlink.com 1.10,2013-02-08 21:52:00,
2013-02-08 17:07:00,35.8,29.0,30.23,North,8,4.0,10.0,76,0.00,,,0.00,weatherlink.com 1.10,2013-02-08 22:07:00,
2013-02-08 17:22:00,35.7,29.0,30.25,North,6,5.0,7.0,76,0.00,,,0.00,weatherlink.com 1.10,2013-02-08 22:22:00,
2013-02-08 17:52:00,35.5,29.0,30.26,North,6,0.0,7.0,76,0.00,,,0.00,weatherlink.com 1.10,2013-02-08 22:52:00,
2013-02-08 18:07:00,35.4,29.0,30.27,NNW,342,1.0,7.0,77,0.00,,,0.00,weatherlink.com 1.10,2013-02-08 23:07:00,
2013-02-08 18:23:00,35.3,28.0,30.28,NNE,30,4.0,7.0,76,0.00,,,0.00,weatherlink.com 1.10,2013-02-08 23:23:00,
2013-02-08 18:37:00,35.1,28.0,30.28,North,6,4.0,6.0,76,0.00,,,0.00,weatherlink.com 1.10,2013-02-08 23:37:00,
2013-02-08 18:52:00,35.0,28.0,30.29,NNE,30,2.0,7.0,75,0.00,,,0.00,weatherlink.com 1.10,2013-02-08 23:52:00,
2013-02-08 19:07:00,34.9,27.0,30.30,North,9,2.0,9.0,74,0.00,,,0.00,weatherlink.com 1.10,2013-02-09 00:07:00,
2013-02-08 19:22:00,34.8,28.0,30.30,NNW,330,4.0,6.0,75,0.00,,,0.00,weatherlink.com 1.10,2013-02-09 00:22:00,
2013-02-08 19:37:00,34.8,28.0,30.30,North,354,4.0,6.0,75,0.00,,,0.00,weatherlink.com 1.10,2013-02-09 00:37:00,
2013-02-08 19:52:00,34.7,28.0,30.31,North,356,3.0,4.0,75,0.00,,,0.00,weatherlink.com 1.10,2013-02-09 00:52:00,
2013-02-08 20:07:00,34.7,28.0,30.31,NW,326,1.0,7.0,75,0.00,,,0.00,weatherlink.com 1.10,2013-02-09 01:07:00,
2013-02-08 20:23:00,34.7,27.0,30.31,West,281,1.0,5.0,74,0.00,,,0.00,weatherlink.com 1.10,2013-02-09 01:23:00,
2013-02-08 20:37:00,34.8,27.0,30.31,North,1,1.0,3.0,74,0.00,,,0.00,weatherlink.com 1.10,2013-02-09 01:37:00,
2013-02-08 20:53:00,34.8,27.0,30.32,NNE,25,2.0,4.0,74,0.00,,,0.00,weatherlink.com 1.10,2013-02-09 01:53:00,
2013-02-08 21:08:00,34.8,27.0,30.32,NNW,342,0.0,4.0,74,0.00,,,0.00,weatherlink.com 1.10,2013-02-09 02:08:00,
2013-02-08 21:23:00,34.7,28.0,30.32,West,281,1.0,3.0,75,0.00,,,0.00,weatherlink.com 1.10,2013-02-09 02:23:00,
2013-02-08 21:38:00,34.6,27.0,30.32,NW,308,1.0,2.0,75,0.00,,,0.00,weatherlink.com 1.10,2013-02-09 02:38:00,
2013-02-08 21:53:00,34.4,27.0,30.32,WNW,287,0.0,2.0,75,0.00,,,0.00,weatherlink.com 1.10,2013-02-09 02:53:00,
2013-02-08 22:08:00,34.3,27.0,30.32,West,280,0.0,1.0,75,0.00,,,0.00,weatherlink.com 1.10,2013-02-09 03:08:00,
2013-02-08 22:23:00,33.7,27.0,30.32,WNW,291,0.0,1.0,76,0.00,,,0.00,weatherlink.com 1.10,2013-02-09 03:23:00,
2013-02-08 22:38:00,32.8,27.0,30.32,North,352,0.0,0.0,78,0.00,,,0.00,weatherlink.com 1.10,2013-02-09 03:38:00,
2013-02-08 22:53:00,32.6,27.0,30.33,NNE,27,0.0,0.0,81,0.00,,,0.00,weatherlink.com 1.10,2013-02-09 03:53:00,
2013-02-08 23:08:00,32.4,27.0,30.33,NNE,19,0.0,1.0,81,0.00,,,0.00,weatherlink.com 1.10,2013-02-09 04:08:00,
2013-02-08 23:23:00,32.7,27.0,30.32,NNW,328,0.0,0.0,80,0.00,,,0.00,weatherlink.com 1.10,2013-02-09 04:23:00,
2013-02-08 23:38:00,32.9,27.0,30.33,ENE,65,0.0,1.0,80,0.00,,,0.00,weatherlink.com 1.10,2013-02-09 04:38:00,
2013-02-08 23:53:00,33.1,27.0,30.34,NNW,342,0.0,1.0,79,0.00,,,0.00,weatherlink.com 1.10,2013-02-09 04:53:00,